Date,TemperatureHighF,TemperatureAvgF,TemperatureLowF,DewpointHighF,DewpointAvgF,DewpointLowF,HumidityHigh,HumidityAvg,HumidityLow,PressureMaxIn,PressureMinIn,WindSpeedMaxMPH,WindSpeedAvgMPH,GustSpeedMaxMPH,PrecipitationSumIn
2013-3-4,72.0,61.8,44.0,0.0,0.0,0.0,54,26,15,30.05,29.98,16,4,20,0.00
2013-3-5,74.0,58.8,43.0,0.0,0.0,0.0,55,34,20,30.05,29.86,33,10,36,0.00
2013-3-6,66.0,52.4,42.0,0.0,0.0,0.0,74,50,23,29.99,29.87,43,21,44,0.00
2013-3-7,58.0,49.6,43.0,0.0,0.0,0.0,75,48,33,29.91,29.80,30,13,39,0.00
2013-3-8,46.0,41.0,36.0,0.0,0.0,0.0,88,71,48,29.88,29.71,26,9,28,0.00
2013-3-9,63.0,50.2,37.0,0.0,0.0,0.0,76,48,19,30.21,29.88,21,9,23,0.00
2013-3-10,69.0,56.1,40.0,0.0,0.0,0.0,47,22,10,30.32,30.17,16,3,16,0.00
2013-3-11,73.0,55.3,36.0,0.0,0.0,0.0,51,27,8,30.23,30.06,16,6,16,0.00
2013-3-12,78.0,60.0,40.0,0.0,0.0,0.0,46,24,9,30.18,30.06,14,5,23,0.00
2013-3-13,83.0,64.1,44.0,0.0,0.0,0.0,42,24,11,30.24,30.10,12,4,13,0.00
2013-3-14,89.0,68.5,47.0,0.0,0.0,0.0,43,22,9,30.20,30.03,12,5,14,0.00
2013-3-15,89.0,74.4,61.0,0.0,0.0,0.0,40,23,7,30.05,29.84,28,10,31,0.00
2013-3-16,68.0,65.7,64.0,0.0,0.0,0.0,33,28,26,29.88,29.87,22,9,22,0.00
2013-3-18,80.0,67.2,46.0,0.0,0.0,0.0,38,18,8,30.04,29.89,24,8,26,0.00
2013-3-19,81.0,68.5,58.0,0.0,0.0,0.0,31,19,11,30.05,29.89,21,7,22,0.00
2013-3-20,77.0,66.8,0.0,0.0,0.0,0.0,45,28,14,30.02,29.82,38,18,48,0.00
2013-3-21,80.0,64.8,52.0,0.0,0.0,0.0,45,28,12,29.90,29.70,20,8,23,0.00
2013-3-22,76.0,60.2,44.0,0.0,0.0,0.0,44,25,6,29.90,29.74,24,7,28,0.00
2013-3-23,68.0,56.9,40.0,0.0,0.0,0.0,58,20,6,30.08,29.89,21,10,25,0.00
2013-3-24,74.0,58.8,39.0,0.0,0.0,0.0,24,12,7,30.07,29.90,14,5,17,0.00
2013-3-25,79.0,64.5,48.0,0.0,0.0,0.0,34,19,10,29.98,29.83,25,8,29,0.00
2013-3-26,83.0,67.5,58.0,0.0,0.0,0.0,35,20,10,29.88,29.75,39,16,39,0.00
2013-3-27,81.0,66.1,56.0,0.0,0.0,0.0,48,31,12,29.91,29.80,29,13,33,0.00
2013-3-28,81.0,66.0,55.0,0.0,0.0,0.0,54,33,12,30.02,29.90,28,12,40,0.00
2013-3-29,83.0,68.3,52.0,0.0,0.0,0.0,47,27,11,30.11,30.00,22,7,26,0.00
2013-3-30,83.0,71.0,63.0,0.0,0.0,0.0,41,23,10,30.07,29.95,23,10,28,0.00
2013-3-31,75.0,62.8,54.0,0.0,0.0,0.0,67,43,23,30.03,29.92,36,16,38,0.00